Home   Weather   Auckland   Past weeks

Flag for New Zealand Past Weather in Auckland, New Zealand — Yesterday and Last 2 Weeks

Now
59 °F

Refreshingly cool.


Feels Like: 55 °F
Forecast: 48 / 59 °F
Wind: 21 mph from Southwest

Location: Auckland Airport

Current Time: May 1, 2017 at 4:34:09 pm

Latest Report: May 1, 2017 at 4:00 pm


Visibility: N/A

Pressure: 29.89 "Hg

Humidity: 55%

Dew Point: 43 °F

Location of AucklandLocation

Past Weather in Auckland — Graph

°F

Auckland Temperature Yesterday

Maximum temperature yesterday: 66 °F (at 1:00 pm)
Minimum temperature yesterday: 55 °F (at 10:30 pm)
Average temperature yesterday: 62 °F

High & Low Weather Summary for the Past Weeks

 TemperatureHumidityPressure
High72 °F (Apr 27, 2:30 pm)100% (Apr 17, 7:00 am)30.39 "Hg (Apr 17, 7:00 am)
Low48 °F (Apr 26, 6:00 am)53% (Apr 27, 2:30 pm)29.47 "Hg (Apr 30, 5:00 am)
Average61 °F83%30.04 "Hg
* Reported Apr 16 3:00 pm — May 1 3:30 pm, Auckland, Weather by CustomWeather, © 2017

Note: Actual official high and low records may vary slightly from our data, if they occured in-between our weather recording intervals... More about our weather records

Advertising

Auckland Weather History for the Previous 24 Hours

Scroll right to see more
 ConditionsComfort  
Time TempWeatherWind HumidityBarometerVisibility
3:30 pm
Mon, May 1
59 °FRefreshingly cool.22 mph55%29.89 "HgN/A
3:00 pm59 °FRefreshingly cool.21 mph59%29.89 "HgN/A
2:30 pm61 °FRefreshingly cool.21 mph55%29.89 "HgN/A
2:00 pm61 °FRefreshingly cool.21 mph55%29.86 "HgN/A
1:30 pm61 °FRefreshingly cool.17 mph59%29.86 "HgN/A
1:00 pm61 °FRefreshingly cool.21 mph59%29.86 "HgN/A
12:30 pm59 °FScattered clouds.20 mph63%29.86 "HgN/A
12:00 pm61 °FScattered clouds.14 mph63%29.86 "HgN/A
11:30 am59 °FScattered clouds.9 mph63%29.86 "HgN/A
10:30 am57 °FCool.8 mph63%29.86 "HgN/A
10:00 am57 °FCool.13 mph63%29.86 "HgN/A
9:30 am55 °FCool.15 mph67%29.86 "HgN/A
9:00 am55 °FCool.13 mph77%29.83 "HgN/A
8:30 am54 °FCool.10 mph82%29.83 "HgN/A
8:00 am54 °FCool.15 mph77%29.80 "HgN/A
7:30 am54 °FCool.15 mph77%29.77 "HgN/A
7:00 am54 °FCool.17 mph82%29.74 "HgN/A
6:30 am52 °FCool.15 mph88%29.71 "HgN/A
6:00 am54 °FCool.15 mph82%29.71 "HgN/A
5:30 am54 °FCool.16 mph88%29.68 "HgN/A
5:00 am54 °FScattered showers. Overcast.18 mph88%29.65 "HgN/A
4:30 am54 °FPassing clouds.15 mph88%29.62 "HgN/A
4:00 am57 °FCool.20 mph82%29.59 "HgN/A
3:30 am57 °FLight rain. Partly cloudy.15 mph82%29.56 "HgN/A
3:00 am57 °FLight rain. Partly cloudy.17 mph88%29.56 "HgN/A
2:30 am57 °FScattered showers. Passing clouds.8 mph88%29.56 "HgN/A
2:00 am55 °FLight rain. Mostly cloudy.10 mph88%29.56 "HgN/A
1:30 am55 °FScattered showers. Passing clouds.12 mph88%29.56 "HgN/A
1:00 am55 °FLight rain. Partly cloudy.14 mph88%29.59 "HgN/A
12:30 am55 °FLight rain. Partly cloudy.14 mph82%29.59 "HgN/A
12:00 am57 °FScattered showers. Passing clouds.16 mph77%29.62 "HgN/A
11:30 pm
Sun, Apr 30
57 °FPartly cloudy.16 mph72%29.59 "HgN/A
11:00 pm57 °FLight rain. Passing clouds.20 mph72%29.62 "HgN/A
10:30 pm55 °FPartly cloudy.17 mph77%29.62 "HgN/A
10:00 pm57 °FPartly cloudy.23 mph72%29.59 "HgN/A
9:30 pm57 °FLight rain. Passing clouds.14 mph77%29.59 "HgN/A
9:00 pm57 °FLight rain. Partly cloudy.21 mph82%29.59 "HgN/A
8:30 pm59 °FMostly cloudy.26 mph68%29.59 "HgN/A
8:00 pm59 °FMostly cloudy.18 mph72%29.56 "HgN/A
7:30 pm61 °FPartly cloudy.20 mph72%29.56 "HgN/A
7:00 pm61 °FPassing clouds.20 mph72%29.56 "HgN/A
6:30 pm61 °FPartly cloudy.16 mph77%29.53 "HgN/A
6:00 pm59 °FLight rain. Mostly cloudy.17 mph88%29.53 "Hg6 mi
5:30 pm59 °FLight rain. Partly sunny.21 mph88%29.53 "Hg6 mi
5:00 pm61 °FLight rain. Mostly cloudy.22 mph88%29.53 "HgN/A
4:30 pm63 °FPassing clouds.20 mph77%29.50 "HgN/A
Weather by CustomWeather, © 2017

See weather overviewHow to use our weather pages